{"data":{"norad_id":66805,"epoch":"2026-09-20T22:04:54.607872Z","epoch_age_seconds":50408,"freshness":"FRESH","line1":"1 66805U 25278Q   26263.92007648  .00011569  00000+0  42921-3 0  9996","line2":"2 66805  43.0030  92.1054 0001727 259.1754 100.8903 15.27584218 45067","mean_motion":15.27584218,"eccentricity":0.0001727,"inclination_deg":43.003,"raan_deg":92.1054,"arg_perigee_deg":259.1754,"mean_anomaly_deg":100.8903,"bstar":0.00042921,"rev_number":4506,"period_min":94.266488422179,"perigee_km":481.85154120175,"apogee_km":484.22139051685,"semimajor_km":6861.1734658593,"source":"CELESTRAK","updated_at":"2026-09-21T09:00:36.016203Z"}}